Regional Weather Roundup
Issued by NWS Charleston, SC

Current Version | Previous Version | Text Only | Print | Product List | Glossary On
Versions: 1 2 3 4 5 6 7 8 9 10 11 12 13 14 15 16 17 18 19 20 21 22 23 24 25 26 27 28 29 30 31 32 33 34 35 36 37 38 39 40 41 42 43 44 45 46 47 48 49 50
000 ASUS42 KCHS 011125 RWRCHS REGIONAL WEATHER ROUNDUP NATIONAL WEATHER SERVICE CHARLESTON SC 700 AM EDT FRI AUG 01 2014 NOTE: "FAIR" INDICATES FEW OR NO CLOUDS BELOW 12,000 FEET WITH NO SIGNIFICANT WEATHER AND/OR OBSTRUCTIONS TO VISIBILITY. NOT ALL STATIONS ARE QUALITY CONTROLLED BY THE NATIONAL WEATHER SERVICE. USE DATA WITH CAUTION...ESPECIALLY DEWPOINT OBSERVATIONS. SCZ027-030-031-034>040-042>050-011200- ...SOUTH CAROLINA... CITY SKY/WX TMP DP RH WIND PRES REMARKS N CHARLESTON MOCLDY 75 72 90 CALM 30.00R WATERFRONT PRK N/A 79 N/A N/A N5 N/A FORT JOHNSON NOT AVBL MOUNT PLEASANT PTSUNNY 73 73 100 CALM 30.00R FOG JOHNS ISLAND PTSUNNY 75 70 83 CALM 30.00R HAZE PINOPOLIS N/A 75 73 94 E2 29.92R MONCKS CORNER NOT AVBL SUMMERVILLE FAIR 72 72 100 CALM 30.01S FOG BEAUFORT MCAS FOG 74 73 97 NE5 30.00R VSB 1/2 BEAUFORT ARPT CLOUDY 73 73 100 N5 29.99R FOG HILTON HEAD IS PTCLDY 75 75 100 N5 29.99R GEORGETOWN NOT AVBL WALTERBORO FOG 72 N/A N/A CALM 30.02R VSB 1 ORANGEBURG CLOUDY 72 70 93 NE5 30.02R FOG BARNWELL CLOUDY 72 72 100 CALM 30.03S FOG AIKEN CLOUDY 68 68 100 N8 30.08R MANNING FAIR 72 N/A N/A CALM 30.02R KINGSTREE NOT AVBL COLUMBIA CLOUDY 74 69 85 NW7 30.03R HAZE SUMTER MOCLDY 72 72 100 NE5 30.01R FLORENCE CLOUDY 73 71 93 E7 30.03R MYRTLE BEACH MOCLDY 77 72 83 SE7 30.02R N MYRTLE BEACH CLOUDY 78 71 79 S5 30.03R $$ GAZ063-065-086>088-099>101-113>116-118-119-134-136>141-150-011200- ...GEORGIA... CITY SKY/WX TMP DP RH WIND PRES REMARKS SAVANNAH ARPT FOG 73 72 94 N6 29.99R VSB 1/4 HUNTER AAF FOG 75 75 100 N6 29.97S VSB 1/2 FORT STEWART FOG 73 73 100 N6 29.97S VSB 1/2 STATESBORO NOT AVBL SYLVANIA FOG 74 74 100 N5 30.02R VSB 3/4 CLAXTON FOG N/A N/A N/A CALM 30.00S VSB 1/4 THOMSON CLOUDY 69 69 100 N6 30.10S AUGUSTA-BUSH CLOUDY 70 68 93 N8 30.03R FOG AUGUSTA-DANIEL CLOUDY 70 68 93 N8 30.05R FOG SWAINSBORO CLOUDY 75 75 100 NE5 30.02S FOG VIDALIA FOG 73 73 100 CALM 30.01R VSB 1/4 ALMA MOCLDY 73 71 93 CALM 29.98R FOG WAYCROSS PTCLDY 76 74 96 CALM 29.97F JESUP FAIR 77 73 88 CALM 29.98S FOG BRUNSWICK MOCLDY 77 73 88 CALM 29.97R SAINT SIMONS MOCLDY 81 77 88 CALM 29.96R $$ SCZ027-028-034-036>038-045-046-048>050-GAZ119-141-011200- ...LAKE AND SUPPLEMENTAL COASTAL OBSERVATIONS... STATION/POSITION TIME TEMP WIND PRES WAVE SWELL AIR SEA DIR/SP/G HT/PER HT/PER/DIR (UTC) (F) (DEG/KT/KT) (MB) (FT/S) (FT/S/D) UPR LAKE MARION NOT AVBL WINYAH BAY 1100 76 160/ 4 1016.0S LAKE MURRAY 1100 69 310/ 7/ 11 1016.6S ACE BASIN NERRS 1100 72 CALM 1015.0S FORT PULASKI 1100 77 10/ 5/ 7 1015.5R SAPELO ISLAND 1100 78 CALM 1015.0S $$ ANZ835-935-AMZ111-154-330-350-352-354-374-450-454-472-011200- ...C-MAN AND BUOY OBSERVATIONS... STATION/POSITION TIME TEMP WIND PRES WAVE SWELL AIR SEA DIR/SP/G HT/PER HT/PER/DIR (UTC) (F) (DEG/KT/KT) (MB) (FT/S) (FT/S/D) FOLLY BEACH CMAN 1100 77 10/ 7/ 8 1016.0R BUOY 41004 1100 81 83 200/ 12/ 16 1014.6F 4/ 5 2/ 6 BUOY 41008 1100 83 85 190/ 8/ 10 1014.4R 3/ 4 2/ 80/ 7 5E ST. MARYS GA 1100 85 N/A 3/ 4 FRYING PAN BUOY NOT AVBL BUOY 41025 1100 VRB 16/ 19 1018.4S 4/ 6 2/ 70/11 CAPE LOOKOUT NC 1100 80 90/ 16/ 18 1017.9R BUOY 41002 1028 81 81 160/ 14/ 16 1018.7R 3/ 7 2/110/ 7 BUOY 41010 1100 83 84 140/ 14/ 16 1015.4S 3/ 5 2/ 90/ 8 BUOY 41012 NOT AVBL ST AUGUSTINE FL 1100 77 200/ 6/ 8 1015.1R CAPERS NEARSHORE 1000 80 20/ 10/ 12 N/A FRIPP NEARSHORE NOT AVBL $$

USA.gov is the U.S. government's official web portal to all federal, state and local government web resources and services.